Volver al catálogo

FENGYUN 1C DEB

ActivoLEO
NORAD 30413·DEBRIS·🇨🇳 China

Lanzado May 10, 1999 desde Taiyuan Satellite Launch Center

Loading…

Próximos Pases (próximas 24 horas)

TLE

ActualizadoSource: Space-Track

Época: Sep 14, 2026, 10:34 UTC

1 30413U 99025AEC 26257.44031650  .00003374  00000-0  11880-2 0  9998
2 30413 102.0642 242.9746 0043193 216.1530 304.3690 14.35409618 10850

Sigue FENGYUN 1C DEB en tiempo real con AllMySat

Download on the App Store